RH
92 91 85 83 91 93 90 89 86 86 89 90 96 101 100 100 100 99 99 95 88 86 85 85 87 91 95 95 90 84 81 79 78 78 81 82 81 79 75 67 59 54 48 40 33 27 25 30 38 42 40 39 46 61 75 81 86 90 93 98 99 94 92 94 97 98 96 96 98 98 94 91 89 84
94 93 91 90 95 97 94 88 81 81 83 83 87 95 98 100 100 98 97 91 84 84 85 84 87 90 91 91 87 82 78 76 77 79 78 77 79 82 81 74 65 57 53 48 43 36 29 26 28 34 37 36 34 41 52 60 72 86 91 93 97 95 94 96 97 95 94 94 95 99 100 97 96 93
95 95 95 97 99 95 91 88 84 81 83 82 80 83 89 97 101 100 97 93 86 84 84 83 85 88 89 89 88 84 81 79 77 77 77 76 80 86 88 82 73 65 58 54 52 47 39 32 27 27 30 32 30 31 36 41 53 72 84 88 92 94 95 98 98 96 95 93 94 98 101 99 98 96
87 93 93 96 98 92 87 88 89 86 87 88 83 78 78 85 95 101 100 98 94 88 86 86 86 86 86 85 83 79 76 75 75 76 78 78 80 85 90 88 82 75 68 63 62 58 51 42 35 31 28 28 28 26 28 32 38 54 72 81 83 85 90 93 95 97 95 92 95 99 100 101 99 96
76 87 92 88 88 89 85 85 89 87 85 87 85 82 79 77 83 94 100 101 99 96 93 91 89 88 86 83 80 77 75 73 72 72 74 76 78 81 88 92 89 82 77 72 69 67 61 51 43 39 34 31 29 28 30 30 29 37 54 73 82 81 82 85 86 91 94 93 96 100 100 101 99 97
70 74 78 74 75 83 86 84 85 82 78 79 79 78 78 75 75 82 92 98 100 100 98 94 92 91 89 86 82 80 78 75 73 72 71 73 75 78 83 90 93 89 84 80 76 74 69 59 50 44 39 37 35 36 44 43 31 24 32 58 85 87 81 82 79 79 86 92 96 99 100 101 100 98
71 66 64 63 70 80 84 81 83 84 83 83 78 73 70 69 70 73 80 88 93 97 99 98 97 96 93 89 85 82 82 81 78 75 73 73 73 74 77 82 90 93 92 88 83 80 77 69 61 54 47 44 38 41 64 75 57 34 23 39 71 85 83 81 75 66 66 76 90 96 94 96 100 100
70 66 60 59 69 81 85 83 85 88 88 84 78 72 67 63 63 66 72 78 83 88 94 96 96 94 93 91 88 86 86 85 83 80 77 76 74 74 75 76 80 88 94 96 91 87 81 73 66 60 54 51 46 51 78 98 88 62 35 26 45 70 82 84 78 65 52 52 71 86 88 88 92 98
76 73 64 62 70 82 86 85 87 87 84 80 76 71 68 65 65 67 72 76 81 87 92 94 94 93 93 95 95 90 86 84 84 84 82 79 76 75 76 75 76 79 85 92 96 94 89 80 70 63 56 50 51 65 85 99 101 88 58 31 27 44 64 76 81 76 60 50 57 70 77 78 82 93
89 84 73 68 72 82 87 86 84 82 79 76 72 69 71 74 75 77 78 80 85 93 97 97 99 100 97 97 96 91 87 83 80 80 82 82 79 77 75 75 76 77 78 81 88 93 94 90 82 74 63 49 50 75 94 97 101 100 79 49 27 25 37 52 65 71 65 59 58 57 56 58 67 84
92 90 82 75 73 79 87 88 84 78 74 69 66 67 75 79 78 78 81 83 84 91 99 100 100 101 99 97 94 89 88 88 85 81 79 79 78 77 76 75 75 76 78 78 80 83 87 90 88 83 76 61 57 81 101 99 99 103 96 75 44 22 19 25 35 43 44 46 50 46 37 31 39 58
86 87 85 80 75 77 85 88 85 78 72 69 68 72 79 79 74 71 75 82 83 85 93 101 100 99 101 100 97 94 95 96 91 82 75 75 78 79 79 79 77 76 78 79 80 81 81 82 82 80 77 67 61 77 98 101 99 100 101 93 71 42 20 11 11 15 17 19 24 24 18 14 16 26
90 88 87 85 80 78 81 83 82 78 74 72 72 74 78 78 76 71 70 78 86 86 89 97 101 100 100 100 100 100 95 86 80 79 78 80 83 84 83 82 81 79 79 79 79 82 82 82 80 74 69 62 54 62 88 102 100 99 102 100 89 70 45 25 14 11 10 10 10 10 10 9 9 10
99 96 94 93 90 85 83 84 85 86 85 82 80 79 79 82 84 79 72 74 84 90 92 95 99 101 101 100 101 100 91 81 81 85 84 83 85 87 86 84 82 82 82 81 80 81 83 85 86 81 72 63 49 47 75 100 101 97 100 98 90 78 65 50 38 29 24 20 16 14 13 13 13 13
100 100 100 99 98 97 95 95 96 97 97 94 90 85 83 87 90 87 80 74 76 86 94 97 99 100 99 97 96 97 94 92 93 89 84 86 88 88 88 85 83 82 83 84 83 83 85 86 90 90 86 80 64 47 60 91 104 101 101 101 92 80 72 65 57 49 43 37 32 28 25 25 25 24
95 96 98 100 101 101 100 100 100 100 100 99 94 89 84 83 82 82 81 77 74 76 83 94 101 98 92 88 84 83 83 86 90 91 91 93 92 89 89 89 86 84 84 86 86 85 86 86 87 90 89 90 87 69 58 67 80 89 95 94 88 81 77 73 67 62 57 51 48 47 45 45 43 41
93 91 92 94 96 98 99 100 100 99 98 96 93 90 86 80 76 75 77 80 82 79 76 81 88 89 89 85 72 65 67 71 79 87 90 91 91 90 89 87 88 90 89 91 92 89 88 87 86 87 87 89 92 89 78 66 58 60 64 63 60 63 70 74 73 71 69 67 65 63 62 60 55 51
98 96 94 93 93 94 96 96 95 92 90 89 89 88 87 85 81 81 83 82 85 89 85 78 77 80 85 82 69 62 65 67 70 74 75 77 81 83 83 83 89 94 92 91 93 91 89 88 87 86 86 87 89 90 92 88 77 67 60 56 55 58 67 76 80 81 82 82 81 77 72 68 62 56
99 100 99 99 99 98 97 97 97 94 89 85 85 86 86 84 81 82 86 84 84 92 92 84 80 80 80 78 75 75 76 73 70 70 70 73 76 81 87 92 93 93 89 87 88 87 85 86 87 85 85 87 88 89 91 93 93 89 84 79 77 76 77 80 85 92 95 92 89 86 79 74 75 76
101 101 99 100 100 97 94 92 92 95 96 93 90 89 87 86 83 81 82 80 82 91 95 91 87 84 81 81 82 87 91 86 77 74 79 86 89 91 95 97 93 89 86 83 82 83 83 83 83 85 86 88 89 89 90 91 93 95 95 94 94 92 89 86 86 92 98 98 97 94 79 67 69 77
101 100 100 101 99 94 90 86 84 88 95 98 99 98 94 90 87 84 80 78 79 86 92 92 89 85 85 87 88 94 100 97 87 82 84 89 94 97 99 98 92 86 83 82 80 81 82 81 82 84 87 88 89 89 89 89 91 91 92 94 96 96 95 92 89 88 91 93 97 94 78 62 57 63
100 98 95 93 90 84 80 80 81 83 87 92 95 97 99 98 92 86 83 82 83 85 88 91 87 83 87 93 96 97 100 101 98 91 84 84 88 89 89 91 89 85 83 82 80 81 82 82 84 87 88 88 88 88 89 89 90 89 89 89 91 93 94 94 92 90 87 85 85 82 77 70 68 72
95 93 89 88 88 86 81 80 79 78 83 90 91 89 95 100 97 90 87 86 87 90 93 95 91 86 87 93 97 98 97 98 97 89 84 87 89 84 81 85 89 89 85 80 79 80 81 82 85 88 89 89 87 86 86 88 89 89 88 88 87 87 89 92 95 96 93 89 86 84 85 86 88 92
89 89 89 90 92 94 95 94 91 89 90 96 97 92 91 93 92 94 94 90 87 92 97 98 95 92 92 94 97 98 96 94 91 86 86 91 94 92 89 89 88 83 75 74 78 78 77 79 84 86 86 88 87 84 84 85 87 87 86 86 86 86 86 89 93 96 96 96 96 96 98 99 99 100
93 90 89 89 88 90 93 93 94 96 97 99 101 98 93 88 88 95 100 94 89 92 98 99 95 94 96 99 101 100 96 92 91 92 93 95 97 99 98 95 89 79 72 77 84 82 79 81 86 87 88 89 89 87 85 84 85 85 84 84 84 85 86 87 88 89 90 92 94 95 97 98 99 101
97 96 95 94 92 94 96 94 92 92 92 94 99 101 97 94 95 99 101 98 95 95 99 100 97 94 94 95 97 100 100 97 97 99 100 99 98 97 98 100 97 87 84 90 91 83 80 84 89 90 90 89 89 87 86 85 83 82 82 83 84 86 87 87 87 88 87 87 87 87 88 90 93 95
98 99 99 96 94 94 97 99 99 95 92 93 98 99 99 100 101 100 100 100 100 99 100 101 100 98 94 91 92 97 100 100 99 99 99 98 97 97 98 101 100 96 94 98 96 88 86 89 92 90 86 85 86 86 84 83 83 81 82 83 84 86 86 85 84 85 85 85 85 85 85 84 84 85
99 100 100 99 95 90 92 98 101 98 97 99 100 99 98 100 101 100 100 100 100 100 100 100 100 99 97 95 96 98 99 98 98 98 98 98 99 100 100 100 100 100 99 99 98 98 98 98 98 95 90 88 89 87 85 84 83 82 84 85 85 85 84 83 82 82 81 81 82 82 83 82 82 82
100 98 98 99 96 90 92 99 101 100 99 100 100 99 98 100 100 100 100 100 100 100 100 101 100 98 97 96 94 92 91 94 97 99 100 101 100 100 100 100 100 100 100 100 100 100 100 100 100 100 98 96 95 92 91 91 88 87 88 88 86 85 84 83 82 81 80 80 78 78 78 79 79 79
101 99 99 99 96 92 93 96 98 99 98 97 99 96 94 98 101 100 100 100 101 101 100 99 96 93 95 97 95 93 93 96 97 96 95 97 99 99 100 101 100 100 100 100 100 100 100 100 100 100 100 100 100 97 96 96 94 94 94 92 90 89 87 84 83 82 80 78 73 69 68 68 69 68
90 93 98 99 94 93 97 96 96 98 97 98 100 95 93 98 101 98 97 98 100 100 97 91 85 84 90 97 99 99 99 99 98 95 94 95 96 96 98 100 100 100 100 100 100 100 100 100 100 100 99 98 97 94 92 94 96 95 95 94 92 90 86 82 80 78 76 73 68 62 59 58 58 58
82 82 92 98 95 96 101 98 95 98 100 100 98 93 94 99 99 96 96 98 100 100 96 90 87 89 93 96 97 99 100 100 100 100 100 100 99 97 98 100 100 99 99 99 99 100 100 100 100 100 100 98 96 94 94 97 97 95 94 94 93 90 86 81 76 70 65 63 61 58 56 56 55 55
86 80 90 100 99 98 101 99 96 99 101 100 96 93 95 100 99 97 98 99 100 100 97 94 95 96 96 94 93 96 99 100 100 100 99 100 101 100 100 100 100 100 99 96 94 96 99 100 100 100 100 100 99 100 99 98 96 94 93 93 91 89 85 78 68 60 56 55 54 54 54 53 53 53
89 84 92 101 101 99 101 100 99 100 101 100 97 94 96 100 100 100 100 100 100 100 99 98 99 98 98 97 96 98 99 99 100 101 100 100 100 100 101 100 100 100 100 98 96 97 99 101 100 100 101 100 100 101 100 97 95 94 93 91 88 85 80 71 61 55 53 52 52 51 50 50 50 50
94 93 95 98 100 100 100 100 100 101 100 100 99 97 97 97 96 97 99 100 100 101 100 100 100 100 100 100 100 100 100 100 100 100 100 100 100 100 100 100 100 100 100 100 100 100 100 101 100 100 100 100 100 101 100 99 97 95 91 86 80 75 70 64 58 55 53 51 51 50 49 48 47 46
95 98 98 98 99 100 100 100 100 99 99 99 99 99 97 93 91 93 96 98 100 101 100 100 101 100 100 101 101 100 100 100 101 101 100 100 101 100 100 100 100 100 100 100 100 100 100 101 101 100 101 101 101 101 98 94 92 88 82 75 69 64 60 55 52 50 49 49 49 48 47 45 43 43
93 97 98 99 100 100 100 100 99 98 99 100 100 100 99 97 97 99 100 99 100 101 100 100 100 99 99 98 99 100 100 100 100 100 100 100 100 100 100 100 100 100 100 100 100 100 101 101 100 100 101 102 102 100 94 86 81 76 70 64 61 58 54 51 47 45 45 45 44 43 43 41 39 39
90 92 93 96 99 100 101 100 100 100 100 100 100 100 100 100 100 100 99 98 97 96 94 92 91 88 87 87 88 92 97 100 100 100 100 100 100 100 100 100 100 100 100 100 100 101 102 102 101 101 101 101 98 92 85 76 69 64 59 55 53 52 50 48 46 44 43 42 40 40 40 39 36 36
88 91 92 93 95 98 100 100 99 100 100 100 100 100 98 98 96 94 91 89 86 83 81 79 77 75 76 80 85 91 96 100 101 100 100 100 100 100 100 100 100 100 100 100 100 101 100 98 97 96 95 92 87 79 72 67 62 58 55 51 49 47 46 44 42 41 40 40 40 41 41 39 38 37
89 92 94 95 95 97 100 101 100 100 100 100 98 96 93 90 88 85 82 79 75 73 73 73 73 75 81 88 95 98 99 100 100 100 101 101 100 100 100 100 100 100 101 101 99 98 95 91 89 88 86 82 77 72 67 63 60 56 52 49 46 45 43 41 41 41 41 42 43 43 42 41 39 38
92 92 94 98 101 100 100 100 101 100 100 98 94 91 87 84 82 79 75 70 65 67 73 78 82 86 93 97 99 99 100 99 99 100 100 99 100 100 100 100 101 101 101 101 98 95 91 88 85 83 79 75 71 67 62 58 54 50 48 47 46 44 43 43 44 44 44 45 46 45 42 41 40 39
95 95 94 97 101 102 101 101 100 100 100 95 90 86 83 77 70 63 57 52 50 58 74 87 91 93 97 99 98 99 101 100 99 100 101 100 101 101 100 100 101 100 100 99 96 91 87 84 81 77 73 68 64 61 56 52 48 46 45 45 44 44 44 44 45 46 47 48 48 47 45 45 45 43
95 97 96 96 98 99 101 101 100 101 101 97 92 91 88 80 69 59 49 39 33 43 65 86 95 97 99 98 97 98 100 100 99 100 100 100 100 100 100 100 100 100 100 99 92 83 77 73 70 68 65 61 58 56 52 48 45 43 43 43 44 46 48 49 50 50 50 49 49 47 46 48 49 47
96 97 98 98 98 97 99 100 99 100 101 99 98 98 95 87 81 77 68 52 36 34 49 71 89 99 101 99 97 97 99 100 101 100 100 101 101 101 100 100 100 101 102 96 82 69 63 61 60 59 57 54 53 51 49 46 45 45 45 46 47 47 49 51 52 52 51 49 49 48 48 49 51 50
99 98 98 98 98 97 97 98 98 98 100 100 100 101 97 90 85 84 78 63 47 37 39 54 74 90 97 99 100 99 98 99 99 99 99 100 99 99 100 101 101 99 94 81 67 57 54 53 53 53 52 51 50 50 50 50 50 50 50 50 49 48 49 50 50 51 51 49 48 50 52 54 55 56
Wind_Speed
34 33 33 34 32 31 31 27 24 24 25 27 27 26 28 29 26 23 23 26 28 29 29 28 27 30 33 33 32 32 33 36 36 36 35 37 38 39 40 44 47 49 49 47 46 47 49 50 50 49 48 47 46 44 42 40 39 39 37 34 32 31 31 32 32 31 29 28 28 26 26 26 26 27
29 31 32 33 29 24 23 23 22 22 23 24 25 24 25 27 28 26 24 26 27 28 30 29 26 25 27 27 27 27 30 31 32 33 33 35 35 35 36 38 42 47 49 49 48 47 48 49 50 50 49 48 48 47 46 44 42 42 41 38 35 34 32 32 32 32 31 31 30 28 28 28 28 27
23 25 26 27 26 23 20 20 22 23 24 24 25 25 24 24 27 26 25 25 25 25 27 27 27 26 26 26 26 27 28 28 29 31 31 31 31 31 32 34 38 42 46 49 49 48 48 48 49 50 50 50 49 48 48 48 46 44 43 41 40 38 36 34 33 34 34 33 32 31 30 30 30 30
18 20 21 22 23 22 20 20 21 22 23 23 23 25 25 24 24 24 23 23 24 23 22 22 23 24 23 22 23 24 24 24 25 26 28 28 27 28 30 32 35 39 42 45 48 48 48 47 47 48 50 50 49 48 48 49 48 46 44 44 43 43 42 39 37 36 36 35 34 33 33 32 32 33
18 18 19 19 19 21 22 22 22 21 21 22 22 22 23 24 25 23 21 20 20 19 19 20 19 19 20 20 20 20 20 21 21 22 24 24 25 27 29 30 32 35 38 41 44 47 47 46 45 46 47 49 49 48 45 46 49 48 46 44 44 45 45 44 42 40 38 37 35 34 34 33 34 35
19 19 19 18 19 21 22 23 25 25 23 22 21 20 21 23 24 25 23 21 19 18 18 19 19 19 19 20 19 19 19 19 19 19 20 21 23 24 26 28 30 31 34 37 39 42 45 45 44 43 43 45 47 47 43 41 46 49 47 44 43 45 45 45 46 44 42 40 38 35 34 32 33 35
20 20 20 19 20 22 24 24 26 25 21 19 18 18 19 21 23 25 25 24 22 20 19 20 21 20 20 20 19 18 17 17 17 18 19 20 20 21 23 25 27 28 30 32 35 38 40 41 41 40 40 40 42 42 37 35 39 45 46 45 46 47 46 46 47 48 46 44 42 40 37 34 32 33
22 22 22 21 21 23 25 25 24 21 18 17 17 17 18 20 21 23 24 25 25 23 21 22 22 22 22 21 20 18 17 17 17 18 18 19 20 20 21 22 25 26 28 29 32 34 35 36 36 36 35 35 36 37 34 31 34 40 44 46 48 50 49 48 49 49 49 47 46 45 42 39 35 33
24 24 24 23 23 24 25 26 25 23 21 21 20 19 18 19 21 22 23 25 25 23 22 22 22 21 21 21 20 19 19 19 19 19 19 19 20 20 21 22 23 24 26 28 30 31 32 34 34 33 32 32 33 34 33 31 32 35 39 44 48 50 51 50 50 50 50 49 48 47 45 43 39 36
26 26 25 25 25 26 26 26 26 25 24 24 23 22 20 20 21 22 23 24 24 23 22 22 22 21 21 21 21 21 20 20 20 20 20 20 20 21 21 22 22 23 24 27 29 30 31 32 32 32 31 30 31 32 31 31 32 33 34 38 43 47 50 51 51 51 50 49 49 49 47 46 44 42
26 27 27 27 27 28 27 26 26 25 25 24 24 23 22 22 22 22 23 24 25 24 22 22 22 22 22 22 22 21 20 20 21 21 22 23 24 23 23 23 23 23 23 24 26 28 30 30 31 32 32 30 31 33 33 31 32 33 32 34 38 42 46 49 50 51 51 49 49 49 48 47 47 46
26 27 28 28 28 29 28 27 26 25 24 23 24 23 23 23 23 23 23 24 25 25 23 22 23 23 23 23 23 22 22 23 24 24 25 26 26 25 24 23 23 22 22 22 23 24 26 29 30 31 32 30 32 35 34 32 32 33 33 33 35 38 42 46 48 49 49 48 48 48 48 47 47 46
25 27 28 29 30 30 29 28 26 25 24 24 24 25 24 24 23 24 24 25 26 27 26 24 24 23 24 25 26 26 27 27 27 26 26 25 24 24 24 23 23 22 22 22 23 24 25 27 29 30 31 31 32 36 37 34 34 35 35 34 34 36 39 42 44 45 46 46 45 45 45 46 46 46
18 21 24 27 29 29 29 28 26 25 25 25 25 26 26 25 24 24 24 26 27 28 28 27 26 25 26 27 28 29 29 28 27 26 25 25 25 24 25 25 24 24 23 23 24 24 24 25 26 28 30 31 32 36 39 38 36 36 36 35 35 36 37 39 41 42 42 42 43 43 44 44 44 45
13 15 17 20 23 25 25 25 25 25 25 25 25 26 26 26 25 24 24 25 27 28 29 29 28 28 28 28 28 28 28 26 26 26 26 26 26 26 26 27 26 26 25 24 25 24 24 24 25 26 28 29 31 34 39 40 38 36 36 35 35 36 37 38 39 40 40 40 41 42 42 43 43 44
15 16 18 19 21 22 23 24 24 24 24 24 24 25 25 26 25 24 24 24 25 27 29 30 30 31 30 29 28 26 25 24 25 26 26 25 25 26 26 26 26 25 24 23 23 24 24 24 25 26 27 28 29 32 36 39 39 38 37 35 34 35 37 38 38 39 39 40 41 42 42 43 43 43
16 17 18 20 22 23 24 24 24 24 24 23 24 24 25 26 26 26 25 24 23 24 26 29 32 32 31 30 28 24 21 20 22 25 27 27 26 25 25 24 23 22 21 20 20 21 22 23 24 25 25 25 27 29 32 36 39 39 39 38 37 36 37 38 38 38 38 39 40 41 42 42 41 41
16 16 16 18 19 20 21 22 23 24 24 24 25 25 26 28 28 27 27 27 26 25 25 27 30 31 31 30 27 23 21 20 20 21 25 28 29 28 25 23 21 20 19 19 18 19 21 21 22 23 23 23 24 26 29 32 35 37 39 39 39 38 38 38 38 37 38 39 39 39 38 37 37 37
16 16 15 16 17 18 18 19 20 22 23 25 26 26 27 28 29 29 28 28 29 28 27 27 27 28 29 28 26 24 24 22 18 16 17 22 25 26 24 22 21 20 20 20 20 21 22 21 21 22 21 21 22 22 24 27 30 33 35 36 37 38 38 39 39 38 38 40 39 37 35 33 32 33
18 18 17 17 18 19 20 20 20 20 21 23 24 26 27 28 29 29 28 28 28 29 28 27 27 27 27 26 24 23 24 23 18 14 15 19 22 25 25 24 23 23 23 23 23 24 24 23 23 22 21 21 21 21 22 23 25 28 30 31 33 34 36 38 39 40 40 40 39 38 38 35 33 33
22 23 22 21 22 22 22 23 22 22 22 23 23 24 25 27 29 30 28 27 27 27 27 27 27 27 25 24 22 21 22 24 21 18 18 21 23 25 26 26 25 24 24 25 24 25 25 25 25 24 23 22 22 21 21 21 22 24 26 28 29 30 32 35 37 39 41 42 41 41 40 40 39 37
26 27 26 26 26 26 25 25 25 24 24 25 25 25 24 26 28 29 29 29 27 26 26 26 26 25 24 23 21 21 22 23 23 23 23 22 23 25 27 27 25 24 24 24 24 24 26 26 26 24 23 24 24 23 22 21 21 22 24 25 27 28 30 31 33 35 37 39 40 40 39 38 37 36
25 25 25 24 23 24 24 24 26 26 27 27 27 26 25 27 28 29 29 30 29 27 26 26 26 25 24 23 23 22 23 24 25 25 24 24 25 26 27 28 26 25 25 25 23 24 26 27 27 26 25 25 25 25 24 23 22 22 23 24 26 27 28 28 29 30 31 33 34 34 33 32 31 31
18 17 17 17 17 18 20 21 23 24 26 29 30 29 28 29 29 28 27 28 28 27 26 25 26 26 25 25 25 24 24 25 26 25 25 25 26 27 27 29 29 27 27 24 22 23 24 25 27 28 26 25 24 24 24 23 22 22 23 24 25 26 26 27 28 29 30 30 30 30 31 32 30 30
14 15 15 15 15 16 18 19 20 21 23 27 31 33 33 30 27 26 26 25 24 23 24 24 25 26 26 27 27 25 24 24 25 26 26 26 25 26 27 29 28 27 27 25 22 20 20 21 24 26 27 26 25 24 24 22 21 21 22 23 25 26 26 28 29 30 30 30 31 32 34 34 33 33
18 18 19 18 17 18 19 20 20 21 20 23 29 33 34 31 26 24 24 22 20 21 22 23 24 25 26 26 26 25 24 24 24 24 25 25 25 25 26 27 27 26 25 23 21 20 21 21 22 23 25 25 25 25 25 24 23 22 22 23 24 25 26 27 29 29 30 31 31 32 32 33 33 34
19 18 18 17 17 19 21 21 20 19 18 20 25 30 33 31 28 25 23 20 20 21 22 22 23 25 26 26 26 26 25 25 24 24 26 27 27 26 26 26 26 26 23 21 20 21 22 22 22 22 23 23 24 26 27 26 25 24 23 23 23 23 25 26 27 28 29 30 31 32 32 33 34 35
17 16 15 13 13 15 17 18 17 16 16 18 21 26 30 30 28 26 24 21 21 22 23 23 23 24 26 26 26 27 26 26 26 27 27 28 27 26 26 27 27 26 24 22 22 23 23 22 21 21 21 22 24 26 26 26 25 24 23 23 22 23 24 25 26 27 28 29 31 32 33 34 35 35
12 12 12 12 12 12 12 11 12 14 16 16 17 22 27 27 27 28 26 22 22 23 23 22 21 22 23 24 25 25 25 26 27 28 28 28 27 27 28 28 28 27 25 24 24 24 24 23 21 21 21 22 23 24 24 24 24 23 23 23 23 23 24 25 26 26 27 29 30 31 32 34 34 35
6 7 10 12 12 10 8 6 9 14 17 15 15 20 24 25 25 26 25 23 23 23 22 20 19 18 18 19 20 21 22 24 25 26 27 28 29 30 31 30 30 29 28 27 26 25 25 24 22 21 21 22 22 23 23 23 24 24 24 24 24 23 24 25 26 27 27 28 29 30 31 32 33 34
4 6 9 9 8 6 3 3 6 10 14 12 12 18 22 22 23 23 23 23 23 22 21 20 19 18 18 18 19 20 21 23 24 25 26 27 29 30 30 31 31 30 30 29 28 26 25 25 23 23 24 24 25 25 25 25 26 26 25 25 25 24 24 25 25 26 27 28 29 30 30 31 32 32
6 8 11 7 4 6 6 4 3 7 11 9 10 16 20 20 21 20 19 20 21 21 21 21 19 19 19 19 19 19 20 22 23 25 27 28 29 29 30 31 31 32 31 31 30 28 27 26 25 26 26 27 27 27 27 28 28 28 27 26 26 26 26 26 25 25 25 27 29 30 31 31 32 32
6 8 11 7 2 6 6 5 3 6 9 8 10 16 18 17 18 18 18 19 20 20 20 19 19 19 19 20 20 20 21 22 23 25 26 27 28 29 31 32 33 33 33 32 31 30 29 29 28 28 28 28 29 28 28 28 29 28 27 27 27 27 27 27 26 26 26 27 29 29 30 31 31 32
5 7 11 9 0 5 5 4 4 6 7 9 11 14 15 15 15 15 16 18 19 19 20 20 20 20 21 22 23 23 23 23 24 25 26 28 29 30 32 33 34 34 34 33 32 31 30 29 29 28 28 28 28 28 28 29 28 27 27 27 27 27 27 27 27 27 28 29 29 30 31 31 31 30
4 6 11 11 4 3 5 7 8 8 7 9 11 12 12 12 12 11 12 15 16 17 18 18 19 20 21 21 22 22 22 23 24 26 27 29 30 32 33 34 35 35 35 34 32 30 28 27 27 27 27 27 27 28 29 29 28 27 26 27 28 27 27 27 26 27 28 29 30 31 32 31 30 29
7 8 10 12 10 5 5 9 12 11 8 8 9 10 10 11 10 10 11 12 13 13 13 13 14 15 16 17 18 19 19 21 22 24 25 27 29 31 32 33 33 33 32 31 29 27 25 25 24 25 25 26 27 29 29 28 27 27 27 27 27 26 25 25 26 27 28 29 29 30 30 29 27 25
9 9 9 11 12 11 9 8 10 10 8 7 7 7 8 10 10 10 10 10 11 12 12 12 12 13 14 15 16 17 18 18 19 20 22 24 27 29 31 31 30 29 28 27 25 24 23 23 23 24 25 26 28 29 29 26 25 25 25 26 26 25 24 25 26 26 27 27 28 28 27 27 25 23
10 9 9 9 10 12 12 11 10 9 8 8 8 7 8 9 9 8 8 9 9 10 10 11 12 13 14 15 16 17 18 18 19 19 20 22 25 27 28 28 27 26 24 23 23 23 23 23 23 24 25 26 28 29 27 24 24 23 23 23 23 23 23 24 25 25 25 25 25 25 25 26 25 23
11 10 8 8 8 9 11 12 12 11 11 11 10 9 9 8 7 7 6 6 6 7 7 9 10 12 14 15 16 16 16 17 17 18 19 21 23 26 26 26 25 24 23 22 22 23 23 24 24 25 26 27 27 26 24 22 21 21 20 20 21 21 22 22 23 23 23 22 22 23 24 25 26 24
12 10 9 8 8 8 10 12 12 11 11 10 9 8 7 5 4 3 3 3 4 6 7 9 10 11 12 13 13 14 14 14 14 15 16 18 21 23 24 23 22 22 22 22 23 24 24 25 25 25 25 24 23 22 21 21 21 21 20 20 21 20 20 20 20 21 21 21 22 24 25 26 26 26
11 10 9 8 8 9 10 11 11 10 9 7 6 4 3 2 0 1 2 3 5 6 8 8 8 9 10 11 12 12 13 13 12 13 14 17 20 21 21 21 21 22 22 22 23 24 23 23 23 22 22 21 21 21 22 23 24 23 21 21 21 20 20 20 20 21 22 22 24 26 27 28 29 29
11 10 8 7 7 8 9 10 10 8 6 5 4 2 2 1 1 2 2 4 5 6 7 7 8 8 9 10 11 12 12 13 12 12 14 17 19 19 19 20 22 22 22 22 22 22 21 20 20 20 21 21 21 23 24 25 24 23 21 21 20 20 20 21 21 22 24 25 26 28 28 29 30 32
11 10 8 7 5 6 7 8 8 7 5 3 1 0 1 1 2 2 2 3 4 6 7 7 8 8 9 10 10 11 13 14 13 13 14 16 18 18 19 20 21 21 21 21 20 20 19 19 19 20 21 22 23 24 25 25 24 23 22 21 20 20 21 22 23 25 26 27 28 29 30 30 31 34
10 9 8 7 5 4 3 3 4 4 3 3 2 2 3 3 2 2 2 2 2 4 6 8 8 8 9 10 10 11 12 14 15 15 15 15 16 17 19 19 19 19 20 20 20 20 20 20 20 21 22 23 23 24 25 25 24 24 24 23 23 23 23 24 25 27 28 29 30 31 31 33 34 36
8 8 7 7 6 5 3 2 1 2 2 3 4 5 6 5 4 4 4 3 2 2 4 6 7 8 9 9 9 10 11 13 15 16 17 17 17 18 19 19 20 20 20 20 21 21 21 21 22 23 23 23 24 25 26 26 26 26 27 27 27 27 26 27 28 30 32 32 31 31 32 34 35 36
Wind_Direction
243 241 239 240 245 242 235 232 230 228 230 229 226 228 233 232 222 214 215 222 227 227 228 230 228 227 225 224 223 223 224 226 228 231 234 235 234 233 232 232 232 232 231 231 231 231 231 230 228 226 226 227 229 229 229 228 227 227 227 228 227 228 227 225 223 223 223 223 222 220 222 225 226 228
241 240 236 234 235 235 231 231 234 236 237 235 233 230 229 231 227 220 219 225 228 225 225 228 227 224 222 222 223 224 224 226 229 233 237 239 239 237 234 232 230 230 230 230 230 231 231 231 231 229 227 227 228 230 230 230 229 228 228 228 228 228 228 227 226 225 224 224 223 221 220 221 221 223
238 238 237 234 230 226 223 227 230 234 236 235 235 233 229 229 226 222 222 226 229 227 224 226 226 226 227 228 229 230 229 230 232 234 236 238 239 238 234 231 228 227 228 229 229 230 231 231 231 231 229 227 227 229 230 231 231 230 229 229 229 228 228 228 227 227 226 226 225 225 224 220 219 221
236 240 240 238 233 225 219 221 224 226 228 228 230 231 230 230 228 224 221 222 226 228 223 222 222 223 225 224 224 224 224 225 226 229 232 235 236 235 233 231 228 225 225 226 228 229 230 230 230 231 231 229 228 228 229 230 231 230 231 231 231 230 229 228 227 227 228 228 227 227 227 225 222 223
234 240 243 242 240 233 225 220 219 219 222 224 226 227 227 228 230 229 225 221 220 218 213 211 211 211 212 213 215 216 217 218 220 225 230 233 235 235 232 231 229 227 225 225 226 228 228 228 228 230 231 230 229 228 229 230 229 229 230 232 233 232 231 230 228 227 227 228 228 228 229 228 225 225
234 238 241 242 243 243 238 229 221 217 217 221 224 226 227 227 229 231 230 226 221 216 211 210 209 207 209 212 215 218 220 220 222 225 229 233 235 237 235 231 229 228 228 226 226 227 227 226 226 228 230 231 230 229 229 231 230 228 228 229 232 233 233 233 232 230 228 227 228 229 230 229 227 227
239 238 239 240 239 241 243 239 230 219 212 216 223 229 231 231 231 231 231 230 228 224 221 220 219 216 217 220 220 222 224 223 224 227 229 232 234 237 238 235 229 226 226 226 225 226 226 226 227 228 229 231 230 227 227 229 230 228 226 226 229 232 232 233 235 235 232 229 229 232 233 233 232 229
241 239 238 238 237 236 238 239 234 224 218 222 227 233 235 234 233 232 231 231 230 229 226 225 226 225 225 226 224 224 224 223 224 226 229 231 232 234 238 238 233 227 224 223 224 224 224 223 224 226 229 231 229 223 220 223 228 228 226 225 227 231 232 233 235 237 236 233 231 232 235 237 237 233
237 236 236 237 235 232 232 234 233 230 230 230 231 234 235 234 232 230 229 227 226 227 227 227 228 229 228 227 224 223 222 223 225 226 228 230 231 233 235 237 236 231 227 225 223 222 221 220 221 222 225 229 226 220 217 219 226 229 228 226 227 230 232 234 234 235 237 236 234 233 235 236 236 234
235 233 233 233 232 230 229 231 232 232 232 232 232 233 232 230 228 227 225 224 221 221 224 226 228 228 227 225 224 223 222 223 227 229 229 230 230 231 233 235 236 233 231 230 228 226 224 223 223 222 222 223 220 216 215 218 225 230 229 228 227 229 232 234 234 235 235 236 236 236 235 235 234 234
235 233 231 230 229 229 229 230 231 231 231 231 231 230 229 227 226 224 223 222 221 219 219 224 227 228 228 228 227 227 225 223 224 227 231 230 228 228 230 232 235 234 235 235 234 233 231 229 229 227 226 222 215 212 214 217 222 227 228 227 226 227 230 233 234 234 234 235 236 237 237 236 236 235
236 233 232 231 228 228 228 228 229 229 229 229 228 226 225 225 226 224 221 220 221 221 219 221 224 226 228 229 229 228 225 222 221 223 227 230 229 229 231 233 235 237 238 239 240 239 236 233 232 230 228 224 216 212 213 216 220 223 226 225 223 223 225 228 231 232 234 234 234 236 237 238 238 238
237 236 234 232 229 228 227 228 229 229 228 228 227 225 222 222 224 224 222 218 219 222 222 222 222 224 225 226 227 226 223 223 226 225 225 229 232 233 236 237 238 238 239 240 241 240 238 234 233 231 228 224 218 213 213 216 219 222 224 225 224 222 222 224 227 228 230 232 232 234 236 237 239 240
233 235 235 233 231 230 229 230 230 230 230 229 227 225 224 222 222 223 223 220 218 220 222 222 222 222 223 223 225 227 226 226 228 228 227 229 231 233 235 236 236 235 235 236 237 237 236 233 231 230 229 226 220 214 213 215 218 221 224 225 225 226 225 226 227 228 228 230 231 232 234 236 237 239
234 231 230 229 228 227 228 228 228 228 228 227 226 225 223 222 223 224 226 226 222 220 221 221 220 222 224 224 225 228 229 228 228 229 229 229 230 231 233 235 236 235 234 234 235 235 235 234 234 233 232 229 225 219 215 215 218 221 223 224 225 228 229 229 230 231 231 232 233 234 235 236 236 237
247 240 235 231 229 228 227 226 225 225 226 226 226 225 223 221 222 225 229 231 229 226 223 221 220 223 226 228 228 229 230 229 228 229 231 231 230 231 233 235 238 239 239 238 239 238 237 237 239 239 236 233 230 225 220 218 220 222 223 224 225 228 231 232 232 233 234 235 236 238 238 238 238 237
253 249 244 240 237 235 233 230 228 226 226 227 227 226 225 224 223 225 229 233 236 236 233 228 225 226 227 229 231 232 232 231 229 229 231 233 232 231 232 234 238 241 242 241 242 242 240 239 240 240 238 236 233 230 226 223 222 223 225 226 227 230 232 234 235 235 236 237 238 239 240 240 240 238
260 263 258 255 250 245 242 238 236 235 233 232 231 230 229 228 227 227 230 234 238 241 241 238 234 232 231 232 235 236 233 232 232 233 234 235 234 232 232 234 236 238 240 241 243 245 243 241 240 240 239 238 236 233 230 227 225 225 226 228 229 230 232 234 236 237 236 237 238 238 239 239 238 237
258 263 259 260 260 258 253 246 241 240 239 238 238 237 235 234 233 231 230 232 236 238 242 242 239 237 236 236 237 237 234 234 237 243 246 243 239 236 234 233 232 232 234 236 238 242 243 243 243 243 243 242 240 236 232 229 228 227 227 229 230 232 232 233 234 236 236 237 238 238 238 236 235 235
257 254 247 248 250 251 252 249 244 240 238 239 241 240 240 238 237 236 234 234 235 237 240 243 241 238 236 236 237 237 236 235 235 241 245 241 237 234 232 230 229 230 232 234 237 241 244 245 245 246 246 245 243 240 236 232 230 229 229 229 231 233 233 233 232 234 236 237 237 237 237 238 238 238
255 249 247 250 251 250 249 247 245 242 238 237 239 240 241 239 237 237 235 235 237 237 237 241 243 239 232 231 233 234 234 234 232 232 233 230 229 230 229 229 229 231 235 237 239 242 244 245 246 246 246 247 246 243 240 236 233 232 231 231 232 233 234 235 234 234 236 237 238 239 240 241 242 242
254 251 253 257 258 257 252 246 243 241 239 239 238 237 239 240 238 235 232 232 235 236 236 238 242 238 230 226 227 228 228 229 227 226 226 225 223 224 226 229 230 231 236 240 242 243 244 244 244 244 244 246 247 245 242 238 234 232 232 231 232 233 234 236 236 237 238 239 239 241 242 242 242 243
261 260 260 259 258 257 254 248 242 237 235 237 238 236 235 238 239 235 231 230 231 232 234 234 234 233 228 225 226 226 225 226 225 224 225 225 223 223 225 226 225 227 234 240 242 244 245 244 242 241 241 243 246 246 244 241 237 234 233 232 232 233 234 234 235 236 237 238 239 240 241 241 241 241
266 264 261 259 258 255 252 248 243 238 232 231 235 237 236 235 236 236 234 231 228 228 231 231 229 227 225 225 226 226 226 228 228 227 227 228 227 228 228 225 226 234 243 245 244 246 247 245 242 242 242 243 246 247 246 245 241 236 234 233 232 232 233 234 234 235 236 236 236 236 236 235 234 233
287 285 282 279 277 271 263 255 247 243 236 229 229 233 236 236 234 235 236 233 227 225 228 230 228 224 223 223 224 225 227 228 228 227 228 229 229 230 231 230 230 239 247 246 242 242 244 242 240 240 241 241 243 246 247 245 242 237 234 233 232 231 232 235 237 239 239 238 237 237 237 237 235 234
289 291 291 289 285 279 275 267 257 250 244 234 228 229 233 236 234 233 235 231 225 225 226 226 226 224 222 222 224 226 228 228 227 228 228 229 230 232 236 237 237 242 247 245 239 237 239 240 239 238 238 240 241 244 246 246 244 240 235 233 232 230 232 234 237 239 241 241 242 242 242 243 241 239
288 290 288 283 278 276 274 269 260 252 243 236 231 226 227 231 231 230 231 226 221 224 224 222 222 222 221 222 224 226 228 229 230 231 232 232 232 232 235 239 241 244 247 246 241 241 243 242 240 237 237 239 239 240 242 243 243 241 239 237 235 233 233 235 237 238 239 241 243 243 243 244 243 242
290 289 281 273 273 280 278 264 251 243 233 231 232 226 222 223 224 224 225 222 218 221 222 220 219 217 217 220 223 225 227 228 230 233 235 234 232 230 232 238 241 243 244 243 240 241 243 242 239 236 235 236 237 239 241 243 243 243 243 242 240 238 238 238 239 240 240 241 242 243 244 245 245 245
293 290 283 275 272 282 283 259 231 224 221 222 229 225 218 216 217 218 220 219 219 221 222 221 219 215 213 217 221 224 225 226 227 230 231 231 230 230 232 236 239 241 242 242 240 240 239 237 234 232 232 234 237 241 243 245 247 247 246 245 245 245 243 242 242 242 242 243 243 244 245 246 246 246
314 312 303 287 275 280 288 259 228 224 220 218 223 220 213 210 211 213 215 216 217 219 221 221 220 220 221 224 227 230 232 232 232 232 232 231 230 230 231 233 235 236 236 237 239 240 239 236 231 229 231 232 234 239 242 245 247 247 246 246 246 246 245 244 244 244 244 244 245 245 246 247 246 246
337 341 333 309 275 262 262 264 250 226 212 208 213 213 209 205 204 207 211 214 215 215 214 215 216 220 227 231 232 233 236 238 240 241 240 237 234 232 232 232 233 234 235 236 237 238 238 237 234 231 232 233 235 238 239 241 243 244 244 244 245 246 247 247 247 246 246 245 246 245 246 246 247 248
356 349 349 337 262 215 206 233 256 204 189 187 199 204 201 196 196 199 206 212 215 216 214 215 219 224 230 233 231 231 233 237 241 243 243 241 240 238 236 234 234 235 236 237 237 235 235 236 236 233 232 234 235 236 236 237 240 241 242 243 245 246 248 249 248 247 246 245 245 246 247 248 249 250
1 350 355 357 250 201 202 224 228 190 179 173 182 191 190 188 192 200 206 210 215 218 218 221 225 229 231 232 231 232 236 239 242 243 241 240 241 241 239 238 239 240 240 239 237 233 231 232 233 232 231 232 232 234 234 236 239 241 242 244 245 247 248 248 246 245 245 245 246 247 248 250 251 251
357 4 14 17 39 185 178 184 185 176 164 156 167 180 185 188 195 202 206 211 216 221 225 228 231 233 235 235 235 236 238 240 242 241 240 239 239 240 239 239 240 241 241 239 236 233 230 229 230 230 232 233 235 236 237 238 240 242 243 244 246 246 245 244 244 244 246 247 247 248 249 250 251 253
26 41 38 37 48 162 165 157 156 154 142 141 157 168 168 173 181 188 197 208 215 219 226 231 234 237 239 240 240 241 242 242 242 241 239 238 237 237 238 239 240 239 238 236 234 232 230 230 231 231 232 234 236 238 239 240 241 242 243 243 244 243 242 242 244 245 246 247 248 249 250 251 252 254
52 61 60 60 61 80 140 148 148 150 145 141 151 156 154 162 175 184 194 203 208 212 219 227 233 237 239 239 241 243 243 244 244 243 242 240 237 236 236 237 239 239 237 235 232 230 230 232 234 234 234 234 236 237 240 242 242 243 242 241 241 241 242 243 243 243 244 246 248 251 254 256 255 254
53 60 68 73 73 78 92 110 126 138 142 138 144 153 159 165 171 178 186 193 198 204 211 218 224 230 232 234 236 237 238 241 243 244 245 243 239 237 234 234 234 234 233 232 230 230 233 235 236 236 235 235 237 241 245 246 245 244 242 241 241 242 242 242 242 242 244 247 250 253 257 258 256 253
45 52 63 74 80 85 89 89 94 100 104 111 122 132 139 145 152 161 172 180 188 197 206 212 219 224 227 230 232 233 234 235 235 238 241 242 239 236 233 230 228 226 225 227 228 230 234 236 237 238 238 238 241 246 248 248 245 245 244 243 243 243 241 240 242 243 245 248 251 253 256 257 257 256
39 41 52 67 79 88 92 92 93 96 102 111 118 122 127 134 143 153 166 179 194 209 220 227 233 235 234 234 234 232 230 230 230 232 236 237 237 235 230 226 223 221 223 226 227 229 233 236 239 242 243 244 247 250 252 251 250 249 247 245 243 242 241 240 241 243 244 247 251 254 256 259 261 261
38 40 46 62 80 95 99 96 96 102 111 116 116 116 120 126 137 154 181 218 235 243 246 245 245 243 237 232 228 224 222 224 227 232 236 236 234 230 225 222 223 225 228 229 230 234 239 244 247 248 247 247 248 250 251 251 249 246 243 242 241 241 242 242 243 245 247 249 253 256 258 261 264 266
36 41 48 62 81 101 108 105 103 105 108 107 104 100 96 86 68 259 261 264 261 258 253 246 241 238 233 225 218 215 217 220 221 226 233 232 227 224 224 225 227 230 232 234 238 243 248 252 251 248 245 244 244 245 245 244 243 242 241 241 242 243 244 245 247 249 252 255 257 260 263 266 268 269
33 38 48 62 83 104 114 117 116 112 105 98 89 70 44 12 341 310 280 269 265 260 253 242 234 227 224 220 215 212 213 216 218 222 228 227 224 224 228 231 232 235 239 244 249 253 254 252 247 243 241 240 240 240 242 243 244 244 243 244 246 249 251 253 253 254 256 258 260 263 267 270 272 273
29 31 39 51 72 102 120 127 129 126 126 131 136 351 333 339 349 341 311 280 267 258 250 244 237 228 223 224 223 217 212 211 212 218 225 228 229 231 234 236 239 243 248 252 254 254 250 246 242 240 239 238 238 241 244 247 248 249 250 251 252 253 255 258 261 262 264 265 266 268 270 271 273 275
32 30 34 41 46 62 102 135 151 160 167 179 220 277 297 304 311 320 325 319 287 259 248 242 236 230 226 228 229 225 217 211 210 212 218 224 231 236 240 243 246 250 252 253 251 248 245 243 241 239 239 240 242 245 249 252 254 256 258 259 259 258 259 261 263 266 267 268 270 272 274 274 275 276
31 26 29 39 42 37 33 22 317 267 255 255 269 285 298 302 292 284 286 285 271 249 244 239 235 233 231 231 232 230 225 219 215 214 215 219 226 234 240 244 247 249 250 249 248 246 244 243 242 241 242 244 246 248 252 256 259 261 263 263 264 265 266 267 267 268 268 268 268 271 274 275 276 277